Location: Doschendorf
(50.0069°N, 11.0602°E)
Time: 09:33:27
(UTC+00:00)

COSMO-SKYMED 1 - Pass Details

Date: 17 November 2019
Orbit: 621 x 623 km, 97.9° (Epoch: 07 December)

Event Time Altitude Azimuth Distance (km) Brightness Sun altitude
Exits shadow 16:57:06 10° 28° (NNE) 2,003 4.8 -13.9°
Maximum altitude 17:01:10 38° 97° (E) 951 3.0 -14.5°
Drops below altitude 10° 17:05:13 10° 167° (SSE) 1,987 5.1 -15.2°
Sets 17:07:31 0° 175° (S) 2,889 6.1 -15.5°
